Tracking 19720 objects as of 26-Jun-2019
HD Live streaming from Space Station
objects crossing your sky now

SL-8 DEB

Track SL-8 DEB now!
10-day predictions


NORAD ID: 21182
Int'l Code: 1991-009AV
Perigee: 1,471.0 km
Apogee: 1,714.0 km
Inclination: 74.0 °
Period: 117.9 minutes
Semi major axis: 7963 km
RCS: 0.1034 m2 (medium)
Launch date: February 12, 1991
Source: Commonwealth of Independent States (former USSR) (CIS)
Launch site: PLESETSK MISSILE AND SPACE COMPLEX (PKMTR)

Note: This is SATELLITE DEBRIS
aabbcc
Your satellite tracking list
Your tracking list is empty




NASA's NSSDC Master Catalog

Two Line Element Set (TLE):
1 21182U 91009AV  19177.21085729 -.00000050  00000-0 -31329-3 0  9990
2 21182  73.9990  85.1163 0152582 318.3738 197.5529 12.21644632261944
Source of the keplerian elements: AFSPC